Location: Igloolik
(69.3800°N, 81.8000°W)
Time: 22:04:52
(UTC-05:00)

Amateur Radio Satellites - All Passes

Search period start: 27 August 2014 21:34
Search period end: 28 August 2014 21:34
Location: Igloolik, 69.3800°N, 81.8000°W

Satellite Date Start Highest point End Downlink Frequencies (MHz)
Time Altitude Azimuth
FUNcube-1 27 Aug 21:40:23 21:44:35 61° 254° (WSW) 21:48:55 145.950 - 145.970 MHz USB
MaSat-1 27 Aug 21:56:03 22:00:48 39° 228° (SW) 22:05:10 437.345 MHz
OPAL 27 Aug 22:07:19 22:11:40 28° 353° (N) 22:16:03 ?
STRAND 1 27 Aug 22:07:22 22:12:08 41° 319° (NW) 22:16:54 ?
Sapphire 27 Aug 22:23:22 22:28:48 71° 183° (S) 22:34:13 437.095 MHz 1200 baud AX-25 AFSK
PCSat 27 Aug 22:53:13 22:58:38 68° 191° (S) 23:04:03 145.825 MHz
UKube-1 27 Aug 22:54:08 22:56:10 13° 284° (WNW) 22:58:13 145.840 MHz, 145.915 MHz
Oscar 11 27 Aug 23:02:56 23:05:35 16° 282° (WNW) 23:08:14 145.825 FM, Beacon 2401.500 USB
KITSAT 1 27 Aug 23:12:41 23:17:48 19° 104° (ESE) 23:22:56 435.175 FM
HO-68 27 Aug 23:13:18 23:17:40 17° 293° (WNW) 23:22:03 435.675 MHz FM
FUNcube-1 27 Aug 23:18:46 23:21:53 19° 277° (W) 23:25:03 145.950 - 145.970 MHz USB
MaSat-1 27 Aug 23:33:43 23:36:45 16° 252° (WSW) 23:39:37 437.345 MHz
OPAL 27 Aug 23:45:07 23:49:34 30° 17° (NNE) 23:54:04 ?
STRAND 1 27 Aug 23:46:22 23:50:29 25° 343° (NNW) 23:54:35 ?
Oscar 16 27 Aug 23:46:46 23:48:25 11° 66° (ENE) 23:50:03 437.025 USB, Beacon 2401.1428
Sapphire 28 Aug 00:06:40 00:11:59 54° 207° (SSW) 00:17:16 437.095 MHz 1200 baud AX-25 AFSK
Saudisat 1A 28 Aug 00:08:36 00:11:25 17° 130° (SE) 00:14:15 436.775 MHz
PCSat 28 Aug 00:36:31 00:41:42 45° 215° (SW) 00:46:51 145.825 MHz
JAS-1B 28 Aug 00:47:06 00:52:49 21° 65° (ENE) 00:57:53 435.800 - 435.900 CW/SSB
Oscar 19 28 Aug 00:50:38 00:54:39 22° 82° (E) 00:58:39 437.125 CW, 437.150 USB
KITSAT 1 28 Aug 01:03:52 01:11:11 39° 130° (SE) 01:18:30 435.175 FM
TMSAT-1 28 Aug 01:09:15 01:10:24 11° 64° (ENE) 01:11:33 436.925 FM
ITAMSAT 1 28 Aug 01:15:53 01:19:30 19° 79° (ENE) 01:23:07 435.822 SSB
OPAL 28 Aug 01:22:49 01:27:45 49° 40° (NE) 01:32:46 ?
STRAND 1 28 Aug 01:24:35 01:28:31 23° 7° (N) 01:32:27 ?
Oscar 16 28 Aug 01:24:54 01:29:32 31° 90° (E) 01:34:09 437.025 USB, Beacon 2401.1428
Uribyol 2 28 Aug 01:26:36 01:30:34 21° 82° (E) 01:34:30 436.500 FM
AO-Echo 28 Aug 01:43:23 01:47:17 24° 86° (E) 01:51:07 ?
AO-27 28 Aug 01:43:57 01:48:12 25° 86° (E) 01:52:27 436.795 MHz FM
AO-40 28 Aug 01:44:36 02:31:56 10° 185° (S) 03:19:47 Beacon 2401.320
Saudisat 1A 28 Aug 01:46:03 01:50:02 33° 153° (SSE) 01:54:02 436.775 MHz
Sapphire 28 Aug 01:50:03 01:54:40 29° 231° (SW) 01:59:15 437.095 MHz 1200 baud AX-25 AFSK
AO-7 28 Aug 01:52:23 01:55:58 13° 55° (NE) 01:59:33 29.400 - 29.500 MHz
Gurwin Techsat 1B 28 Aug 01:54:04 01:57:56 20° 79° (E) 02:01:47 435.225 FM
PCSat 28 Aug 02:20:03 02:24:08 22° 239° (WSW) 02:28:13 145.825 MHz
Oscar 19 28 Aug 02:29:54 02:35:05 59° 105° (ESE) 02:40:14 437.125 CW, 437.150 USB
Uosat F 28 Aug 02:32:53 02:33:16 10° 66° (ENE) 02:33:38 435.120 FM
JAS-1B 28 Aug 02:38:01 02:45:47 48° 94° (E) 02:52:15 435.800 - 435.900 CW/SSB
TMSAT-1 28 Aug 02:47:36 02:52:12 29° 88° (E) 02:56:48 436.925 FM
ITAMSAT 1 28 Aug 02:55:10 03:00:14 50° 102° (ESE) 03:05:17 435.822 SSB
KITSAT 1 28 Aug 02:57:41 03:05:38 63° 156° (SSE) 03:13:36 435.175 FM
OPAL 28 Aug 03:01:26 03:06:34 76° 243° (WSW) 03:11:48 ?
STRAND 1 28 Aug 03:02:12 03:06:40 31° 31° (NNE) 03:11:08 ?
Oscar 16 28 Aug 03:04:21 03:09:36 83° 114° (ESE) 03:14:51 437.025 USB, Beacon 2401.1428
Uribyol 2 28 Aug 03:05:59 03:11:08 58° 105° (ESE) 03:16:16 436.500 FM
AO-Echo 28 Aug 03:22:07 03:26:55 71° 110° (ESE) 03:31:37 ?
AO-27 28 Aug 03:23:28 03:28:40 67° 109° (ESE) 03:33:51 436.795 MHz FM
Saudisat 1A 28 Aug 03:24:51 03:29:05 46° 176° (S) 03:33:20 436.775 MHz
Gurwin Techsat 1B 28 Aug 03:33:54 03:39:08 53° 103° (ESE) 03:44:20 435.225 FM
Sapphire 28 Aug 03:34:51 03:36:33 11° 254° (WSW) 03:38:15 437.095 MHz 1200 baud AX-25 AFSK
AO-7 28 Aug 03:44:57 03:52:06 30° 84° (E) 03:59:13 29.400 - 29.500 MHz
Oscar 19 28 Aug 04:09:26 04:14:33 57° 308° (NW) 04:19:39 437.125 CW, 437.150 USB
Uosat F 28 Aug 04:09:28 04:13:50 29° 90° (E) 04:18:10 435.120 FM
TMSAT-1 28 Aug 04:27:36 04:32:57 77° 112° (ESE) 04:38:16 436.925 FM
JAS-1B 28 Aug 04:28:55 04:37:10 82° 302° (WNW) 04:43:56 435.800 - 435.900 CW/SSB
ITAMSAT 1 28 Aug 04:34:51 04:40:00 65° 305° (NW) 04:45:08 435.822 SSB
STRAND 1 28 Aug 04:40:17 04:45:19 63° 54° (NE) 04:50:23 ?
JAS-2 28 Aug 04:41:11 04:44:06 15° 72° (ENE) 04:47:01 435.800 - 435.900 CW/SSB, 435.910 FM
OPAL 28 Aug 04:41:50 04:46:15 29° 267° (W) 04:50:44 ?
Oscar 16 28 Aug 04:43:52 04:48:48 44° 317° (NW) 04:53:43 437.025 USB, Beacon 2401.1428
Uribyol 2 28 Aug 04:45:39 04:50:45 58° 309° (NW) 04:55:51 436.500 FM
KITSAT 1 28 Aug 04:52:37 05:00:41 72° 184° (S) 05:08:44 435.175 FM
AO-Echo 28 Aug 05:01:05 05:05:39 45° 313° (NW) 05:10:08 ?
AO-27 28 Aug 05:03:10 05:08:12 51° 312° (NW) 05:13:12 436.795 MHz FM
Saudisat 1A 28 Aug 05:04:04 05:08:12 39° 199° (SSW) 05:12:19 436.775 MHz
Gurwin Techsat 1B 28 Aug 05:14:04 05:19:20 63° 306° (NW) 05:24:35 435.225 FM
SO-50 28 Aug 05:17:27 05:20:41 19° 132° (SE) 05:23:58 436.795 FM
AO-7 28 Aug 05:38:17 05:46:36 64° 111° (ESE) 05:54:50 29.400 - 29.500 MHz
Hamsat 28 Aug 05:38:32 05:42:14 26° 88° (E) 05:45:54 145.90 MHz
Uosat F 28 Aug 05:48:18 05:53:22 79° 113° (ESE) 05:58:24 435.120 FM
Oscar 19 28 Aug 05:48:47 05:53:16 30° 332° (NNW) 05:57:45 437.125 CW, 437.150 USB
TMSAT-1 28 Aug 06:07:42 06:12:46 46° 315° (NW) 06:17:49 436.925 FM
ITAMSAT 1 28 Aug 06:14:24 06:18:59 32° 329° (NNW) 06:23:33 435.822 SSB
JAS-1B 28 Aug 06:19:20 06:27:15 48° 330° (NNW) 06:33:54 435.800 - 435.900 CW/SSB
STRAND 1 28 Aug 06:19:46 06:24:45 51° 257° (WSW) 06:29:46 ?
Oscar 16 28 Aug 06:23:04 06:27:19 26° 341° (NNW) 06:31:34 437.025 USB, Beacon 2401.1428
Uribyol 2 28 Aug 06:25:09 06:29:37 30° 332° (NNW) 06:34:06 436.500 FM
JAS-2 28 Aug 06:25:52 06:30:50 42° 97° (E) 06:35:48 435.800 - 435.900 CW/SSB, 435.910 FM
OPAL 28 Aug 06:26:32 06:26:57 10° 291° (WNW) 06:27:22 ?
AO-Echo 28 Aug 06:39:49 06:43:40 24° 337° (NNW) 06:47:28 ?
AO-27 28 Aug 06:42:38 06:47:00 28° 336° (NNW) 06:51:23 436.795 MHz FM
Saudisat 1A 28 Aug 06:43:36 06:47:00 22° 222° (SW) 06:50:23 436.775 MHz
HO-68 28 Aug 06:44:09 06:46:51 12° 58° (ENE) 06:49:33 435.675 MHz FM
KITSAT 1 28 Aug 06:47:46 06:55:38 57° 211° (SSW) 07:03:28 435.175 FM
Gurwin Techsat 1B 28 Aug 06:54:04 06:58:45 32° 329° (NNW) 07:03:25 435.225 FM
SO-50 28 Aug 06:56:05 07:00:18 37° 155° (SSE) 07:04:38 436.795 FM
SO-67 28 Aug 06:58:17 07:01:07 22° 90° (E) 07:03:55 435.3500 MHz FM
Hamsat 28 Aug 07:14:25 07:18:51 80° 111° (ESE) 07:23:14 145.90 MHz
RS-15 28 Aug 07:24:05 07:32:12 25° 105° (ESE) 07:40:19 29.354 - 29.394 USB, Beacon 29.352 USB
Uosat F 28 Aug 07:27:16 07:32:02 44° 316° (NW) 07:36:46 435.120 FM
Oscar 19 28 Aug 07:27:31 07:31:31 23° 356° (N) 07:35:32 437.125 CW, 437.150 USB
AO-7 28 Aug 07:31:27 07:39:45 73° 317° (NW) 07:48:00 29.400 - 29.500 MHz
UOSAT-12 28 Aug 07:32:39 07:36:24 24° 138° (SE) 07:40:11 437.025 FM, 437.400 FM
TMSAT-1 28 Aug 07:47:29 07:51:53 27° 339° (NNW) 07:56:17 436.925 FM
ITAMSAT 1 28 Aug 07:53:24 07:57:27 24° 353° (N) 08:01:29 435.822 SSB
Oscar 16 28 Aug 08:01:30 08:05:30 23° 5° (N) 08:09:31 437.025 USB, Beacon 2401.1428
STRAND 1 28 Aug 08:01:33 08:05:08 19° 281° (W) 08:08:44 ?
Uribyol 2 28 Aug 08:04:01 08:08:01 23° 356° (N) 08:12:02 436.500 FM
JAS-1B 28 Aug 08:08:52 08:16:36 38° 357° (N) 08:23:13 435.800 - 435.900 CW/SSB
JAS-2 28 Aug 08:11:12 08:16:28 73° 302° (WNW) 08:21:40 435.800 - 435.900 CW/SSB, 435.910 FM
AO-Echo 28 Aug 08:17:51 08:21:19 20° 1° (N) 08:24:43 ?
AO-27 28 Aug 08:21:24 08:25:25 23° 360° (N) 08:29:25 436.795 MHz FM
SO-67 28 Aug 08:31:08 08:34:39 88° 110° (ESE) 08:38:09 435.3500 MHz FM
HO-68 28 Aug 08:31:10 08:37:19 30° 85° (E) 08:43:26 435.675 MHz FM
Gurwin Techsat 1B 28 Aug 08:33:29 08:37:39 24° 354° (N) 08:41:48 435.225 FM
SO-50 28 Aug 08:35:53 08:40:21 48° 178° (S) 08:44:55 436.795 FM
KITSAT 1 28 Aug 08:42:54 08:49:50 33° 237° (WSW) 08:56:45 435.175 FM
UKube-1 28 Aug 08:48:16 08:51:19 18° 83° (E) 08:54:21 145.840 MHz, 145.915 MHz
Hamsat 28 Aug 08:50:34 08:54:38 38° 313° (NW) 08:58:41 145.90 MHz
Oscar 11 28 Aug 08:57:15 09:00:14 18° 81° (E) 09:03:13 145.825 FM, Beacon 2401.500 USB
Oscar 19 28 Aug 09:05:26 09:09:42 26° 20° (NNE) 09:13:58 437.125 CW, 437.150 USB
Uosat F 28 Aug 09:05:56 09:10:02 26° 340° (NNW) 09:14:07 435.120 FM
UOSAT-12 28 Aug 09:11:19 09:15:46 41° 161° (SSE) 09:20:14 437.025 FM, 437.400 FM
FUNcube-1 28 Aug 09:15:18 09:17:47 15° 76° (ENE) 09:20:18 145.950 - 145.970 MHz USB
AO-7 28 Aug 09:24:03 09:31:58 50° 344° (NNW) 09:39:51 29.400 - 29.500 MHz
TMSAT-1 28 Aug 09:26:32 09:30:38 23° 3° (N) 09:34:45 436.925 FM
ITAMSAT 1 28 Aug 09:31:35 09:35:47 26° 17° (NNE) 09:39:59 435.822 SSB
RS-15 28 Aug 09:31:41 09:41:53 48° 134° (SE) 09:52:09 29.354 - 29.394 USB, Beacon 29.352 USB
Oscar 16 28 Aug 09:39:17 09:43:46 30° 29° (NNE) 09:48:17 437.025 USB, Beacon 2401.1428
Uribyol 2 28 Aug 09:42:06 09:46:21 27° 20° (NNE) 09:50:38 436.500 FM
AO-Echo 28 Aug 09:55:01 09:58:58 25° 25° (NNE) 10:02:50 ?
JAS-2 28 Aug 09:56:27 10:01:10 34° 327° (NNW) 10:05:48 435.800 - 435.900 CW/SSB, 435.910 FM
JAS-1B 28 Aug 09:57:36 10:05:52 43° 23° (NNE) 10:12:58 435.800 - 435.900 CW/SSB
AO-27 28 Aug 09:59:26 10:03:49 28° 24° (NNE) 10:08:12 436.795 MHz FM
SO-67 28 Aug 10:04:26 10:07:27 28° 313° (NW) 10:10:28 435.3500 MHz FM
Gurwin Techsat 1B 28 Aug 10:12:05 10:16:26 26° 18° (NNE) 10:20:46 435.225 FM
SO-50 28 Aug 10:16:05 10:20:26 39° 202° (SSW) 10:24:53 436.795 FM
HO-68 28 Aug 10:19:13 10:26:22 66° 110° (ESE) 10:33:31 435.675 MHz FM
UKube-1 28 Aug 10:24:09 10:28:28 56° 106° (ESE) 10:32:45 145.840 MHz, 145.915 MHz
Hamsat 28 Aug 10:26:35 10:29:47 20° 336° (NNW) 10:32:59 145.90 MHz
Oscar 11 28 Aug 10:33:05 10:37:24 53° 103° (ESE) 10:41:43 145.825 FM, Beacon 2401.500 USB
KITSAT 1 28 Aug 10:39:00 10:42:51 14° 263° (W) 10:46:41 435.175 FM
Oscar 19 28 Aug 10:43:18 10:48:13 44° 44° (NE) 10:53:09 437.125 CW, 437.150 USB
Uosat F 28 Aug 10:43:52 10:47:41 22° 4° (N) 10:51:31 435.120 FM
UOSAT-12 28 Aug 10:50:54 10:55:27 48° 184° (S) 11:00:01 437.025 FM, 437.400 FM
FUNcube-1 28 Aug 10:51:06 10:55:20 43° 99° (E) 10:59:38 145.950 - 145.970 MHz USB
TMSAT-1 28 Aug 11:04:54 11:09:27 30° 27° (NNE) 11:14:00 436.925 FM
ITAMSAT 1 28 Aug 11:09:35 11:14:25 41° 41° (NE) 11:19:16 435.822 SSB
AO-7 28 Aug 11:15:54 11:23:46 49° 10° (N) 11:31:36 29.400 - 29.500 MHz
Oscar 16 28 Aug 11:17:25 11:22:31 58° 52° (NE) 11:27:39 437.025 USB, Beacon 2401.1428
Uribyol 2 28 Aug 11:20:08 11:25:02 45° 44° (NE) 11:29:58 436.500 FM
AO-Echo 28 Aug 11:32:19 11:37:01 46° 48° (NE) 11:41:37 ?
AO-27 28 Aug 11:37:37 11:42:38 51° 48° (NE) 11:47:39 436.795 MHz FM
SO-67 28 Aug 11:37:53 11:39:40 14° 336° (NNW) 11:41:28 435.3500 MHz FM
JAS-2 28 Aug 11:41:03 11:45:15 24° 353° (N) 11:49:20 435.800 - 435.900 CW/SSB, 435.910 FM
RS-15 28 Aug 11:42:15 11:53:01 68° 165° (SSE) 12:03:57 29.354 - 29.394 USB, Beacon 29.352 USB
JAS-1B 28 Aug 11:46:30 11:55:39 66° 48° (NE) 12:03:27 435.800 - 435.900 CW/SSB
Gurwin Techsat 1B 28 Aug 11:50:32 11:55:31 42° 42° (NE) 12:00:31 435.225 FM
SO-50 28 Aug 11:56:34 12:00:10 22° 224° (SW) 12:03:49 436.795 FM
UKube-1 28 Aug 12:00:31 12:04:45 51° 308° (NW) 12:08:58 145.840 MHz, 145.915 MHz
Hamsat 28 Aug 12:01:54 12:04:34 16° 359° (N) 12:07:13 145.90 MHz
HO-68 28 Aug 12:07:12 12:14:17 65° 315° (NW) 12:21:20 435.675 MHz FM
Oscar 11 28 Aug 12:09:25 12:13:42 52° 306° (NW) 12:17:58 145.825 FM, Beacon 2401.500 USB
Uosat F 28 Aug 12:21:08 12:25:25 29° 28° (NNE) 12:29:43 435.120 FM
Oscar 19 28 Aug 12:22:11 12:27:24 81° 247° (WSW) 12:32:40 437.125 CW, 437.150 USB
FUNcube-1 28 Aug 12:27:37 12:31:59 64° 301° (WNW) 12:36:27 145.950 - 145.970 MHz USB
UOSAT-12 28 Aug 12:30:45 12:35:04 35° 208° (SSW) 12:39:22 437.025 FM, 437.400 FM
TMSAT-1 28 Aug 12:43:32 12:48:43 56° 51° (NE) 12:53:55 436.925 FM
ITAMSAT 1 28 Aug 12:48:29 12:53:41 88° 244° (WSW) 12:58:55 435.822 SSB
Oscar 16 28 Aug 12:56:54 13:02:01 57° 255° (WSW) 13:07:11 437.025 USB, Beacon 2401.1428
Uribyol 2 28 Aug 12:59:13 13:04:24 79° 247° (WSW) 13:09:38 436.500 FM
AO-7 28 Aug 13:07:37 13:15:49 65° 37° (NE) 13:24:02 29.400 - 29.500 MHz
AO-Echo 28 Aug 13:10:49 13:15:46 70° 251° (WSW) 13:20:36 ?
SO-67 28 Aug 13:11:13 13:11:33 10° 358° (N) 13:11:52 435.3500 MHz FM
AO-27 28 Aug 13:16:59 13:22:09 68° 251° (WSW) 13:27:22 436.795 MHz FM
JAS-2 28 Aug 13:24:43 13:29:11 27° 19° (NNE) 13:33:29 435.800 - 435.900 CW/SSB, 435.910 FM
Gurwin Techsat 1B 28 Aug 13:29:56 13:35:17 87° 245° (WSW) 13:40:39 435.225 FM
MaSat-1 28 Aug 13:35:32 13:39:02 19° 111° (ESE) 13:42:32 437.345 MHz
Hamsat 28 Aug 13:36:11 13:39:19 20° 22° (NNE) 13:42:27 145.90 MHz
UKube-1 28 Aug 13:36:49 13:40:21 25° 331° (NNW) 13:43:52 145.840 MHz, 145.915 MHz
JAS-1B 28 Aug 13:36:53 13:46:20 71° 252° (WSW) 13:54:25 435.800 - 435.900 CW/SSB
Oscar 11 28 Aug 13:45:44 13:49:17 24° 329° (NNW) 13:52:50 145.825 FM, Beacon 2401.500 USB
RS-15 28 Aug 13:53:57 14:04:43 68° 196° (SSW) 14:15:43 29.354 - 29.394 USB, Beacon 29.352 USB
HO-68 28 Aug 13:54:42 14:01:19 42° 341° (NNW) 14:07:56 435.675 MHz FM
Uosat F 28 Aug 13:58:42 14:03:36 56° 51° (NE) 14:08:31 435.120 FM
Oscar 19 28 Aug 14:02:55 14:07:29 30° 270° (W) 14:12:05 437.125 CW, 437.150 USB
FUNcube-1 28 Aug 14:04:12 14:07:55 28° 323° (NW) 14:11:43 145.950 - 145.970 MHz USB
UOSAT-12 28 Aug 14:11:03 14:14:14 18° 231° (SW) 14:17:25 437.025 FM, 437.400 FM
TMSAT-1 28 Aug 14:23:29 14:28:45 61° 254° (WSW) 14:34:02 436.925 FM
ITAMSAT 1 28 Aug 14:29:10 14:33:50 33° 267° (W) 14:38:32 435.822 SSB
Oscar 16 28 Aug 14:38:34 14:42:29 21° 279° (W) 14:46:26 437.025 USB, Beacon 2401.1428
Uribyol 2 28 Aug 14:40:11 14:44:40 29° 271° (W) 14:49:10 436.500 FM
SO-67 28 Aug 14:41:49 14:43:23 13° 21° (NNE) 14:44:57 435.3500 MHz FM
AO-Echo 28 Aug 14:51:19 14:55:22 25° 273° (W) 14:59:21 ?
OPAL 28 Aug 14:58:10 14:59:40 11° 71° (ENE) 15:01:10 ?
AO-27 28 Aug 14:58:22 15:02:37 25° 274° (W) 15:06:53 436.795 MHz FM
AO-7 28 Aug 15:00:21 15:08:43 75° 243° (WSW) 15:17:06 29.400 - 29.500 MHz
JAS-2 28 Aug 15:08:11 15:13:30 44° 43° (NE) 15:18:28 435.800 - 435.900 CW/SSB, 435.910 FM
MaSat-1 28 Aug 15:10:17 15:15:08 42° 134° (SE) 15:19:57 437.345 MHz
Hamsat 28 Aug 15:10:26 15:14:25 36° 45° (NE) 15:18:26 145.90 MHz
Gurwin Techsat 1B 28 Aug 15:11:08 15:15:56 33° 268° (W) 15:20:45 435.225 FM
UKube-1 28 Aug 15:12:35 15:15:31 18° 354° (N) 15:18:26 145.840 MHz, 145.915 MHz
Oscar 11 28 Aug 15:21:34 15:24:24 17° 352° (N) 15:27:13 145.825 FM, Beacon 2401.500 USB
JAS-1B 28 Aug 15:29:47 15:38:10 35° 276° (W) 15:45:34 435.800 - 435.900 CW/SSB
Uosat F 28 Aug 15:37:34 15:42:31 58° 254° (WSW) 15:47:30 435.120 FM
FUNcube-1 28 Aug 15:40:25 15:43:19 18° 347° (NNW) 15:46:15 145.950 - 145.970 MHz USB
HO-68 28 Aug 15:41:29 15:47:57 39° 6° (N) 15:54:25 435.675 MHz FM
Oscar 19 28 Aug 15:47:08 15:48:37 11° 295° (WNW) 15:50:06 437.125 CW, 437.150 USB
TMSAT-1 28 Aug 16:05:34 16:09:44 23° 278° (W) 16:13:55 436.925 FM
RS-15 28 Aug 16:05:39 16:15:52 48° 226° (SW) 16:26:19 29.354 - 29.394 USB, Beacon 29.352 USB
SO-67 28 Aug 16:12:40 16:15:32 24° 43° (NE) 16:18:24 435.3500 MHz FM
ITAMSAT 1 28 Aug 16:12:58 16:15:01 12° 292° (WNW) 16:17:04 435.822 SSB
Uribyol 2 28 Aug 16:25:00 16:25:58 10° 295° (WNW) 16:26:56 436.500 FM
OPAL 28 Aug 16:35:40 16:40:17 31° 95° (E) 16:44:54 ?
Hamsat 28 Aug 16:45:47 16:50:09 86° 248° (WSW) 16:54:35 145.90 MHz
MaSat-1 28 Aug 16:46:44 16:51:56 76° 157° (SSE) 16:56:59 437.345 MHz
UKube-1 28 Aug 16:47:25 16:50:35 20° 18° (NNE) 16:53:45 145.840 MHz, 145.915 MHz
Sapphire 28 Aug 16:48:29 16:50:32 12° 107° (ESE) 16:52:34 437.095 MHz 1200 baud AX-25 AFSK
JAS-2 28 Aug 16:52:46 16:58:32 81° 247° (WSW) 17:03:51 435.800 - 435.900 CW/SSB, 435.910 FM
AO-7 28 Aug 16:55:19 17:02:53 36° 269° (W) 17:10:27 29.400 - 29.500 MHz
Gurwin Techsat 1B 28 Aug 16:55:26 16:57:38 12° 293° (WNW) 16:59:50 435.225 FM
Oscar 11 28 Aug 16:56:24 16:59:22 18° 15° (NNE) 17:02:21 145.825 FM, Beacon 2401.500 USB
FUNcube-1 28 Aug 17:15:42 17:18:30 17° 10° (N) 17:21:20 145.950 - 145.970 MHz USB
PCSat 28 Aug 17:16:21 17:19:44 17° 114° (ESE) 17:23:08 145.825 MHz
Uosat F 28 Aug 17:18:35 17:22:22 21° 277° (W) 17:26:09 435.120 FM
JAS-1B 28 Aug 17:26:10 17:31:30 17° 303° (WNW) 17:36:27 435.800 - 435.900 CW/SSB
HO-68 28 Aug 17:27:53 17:34:43 51° 32° (NNE) 17:41:34 435.675 MHz FM
SO-67 28 Aug 17:44:45 17:48:14 75° 65° (ENE) 17:51:44 435.3500 MHz FM
OPAL 28 Aug 18:14:38 18:19:53 80° 118° (ESE) 18:25:08 ?
STRAND 1 28 Aug 18:15:19 18:19:24 23° 85° (E) 18:23:28 ?
RS-15 28 Aug 18:17:26 18:25:34 25° 255° (WSW) 18:33:52 29.354 - 29.394 USB, Beacon 29.352 USB
UKube-1 28 Aug 18:22:00 18:25:56 34° 41° (NE) 18:29:52 145.840 MHz, 145.915 MHz
Hamsat 28 Aug 18:22:57 18:26:43 28° 270° (W) 18:30:31 145.90 MHz
MaSat-1 28 Aug 18:23:53 18:29:07 88° 359° (N) 18:34:05 437.345 MHz
Sapphire 28 Aug 18:27:48 18:32:27 30° 130° (SE) 18:37:08 437.095 MHz 1200 baud AX-25 AFSK
Oscar 11 28 Aug 18:30:48 18:34:36 29° 38° (NE) 18:38:24 145.825 FM, Beacon 2401.500 USB
JAS-2 28 Aug 18:39:27 18:44:28 30° 270° (W) 18:49:09 435.800 - 435.900 CW/SSB, 435.910 FM
FUNcube-1 28 Aug 18:50:18 18:53:50 25° 33° (NNE) 18:57:27 145.950 - 145.970 MHz USB
AO-7 28 Aug 18:53:48 18:58:36 16° 298° (WNW) 19:03:25 29.400 - 29.500 MHz
PCSat 28 Aug 18:56:59 19:01:57 38° 138° (SE) 19:06:56 145.825 MHz
HO-68 28 Aug 19:14:57 19:22:08 88° 58° (ENE) 19:29:21 435.675 MHz FM
SO-67 28 Aug 19:18:37 19:21:39 27° 267° (W) 19:24:42 435.3500 MHz FM
OPAL 28 Aug 19:53:40 19:58:39 47° 321° (NW) 20:03:39 ?
STRAND 1 28 Aug 19:54:28 19:59:34 64° 108° (ESE) 20:04:39 ?
UKube-1 28 Aug 19:57:29 20:01:51 86° 63° (ENE) 20:06:15 145.840 MHz, 145.915 MHz
MaSat-1 28 Aug 20:01:06 20:06:17 75° 204° (SSW) 20:11:05 437.345 MHz
Oscar 11 28 Aug 20:06:01 20:10:22 72° 61° (ENE) 20:14:46 145.825 FM, Beacon 2401.500 USB
Sapphire 28 Aug 20:09:53 20:15:11 55° 154° (SSE) 20:20:30 437.095 MHz 1200 baud AX-25 AFSK
FUNcube-1 28 Aug 20:25:30 20:29:41 57° 57° (ENE) 20:33:59 145.950 - 145.970 MHz USB
JAS-2 28 Aug 20:30:14 20:31:31 11° 296° (WNW) 20:32:48 435.800 - 435.900 CW/SSB, 435.910 FM
PCSat 28 Aug 20:39:29 20:44:52 63° 162° (SSE) 20:50:15 145.825 MHz
HO-68 28 Aug 21:03:47 21:10:35 45° 262° (W) 21:17:26 435.675 MHz FM
